Apalachicola, FL

1:00 PM EDT on May 24, 2017 (GMT -0400)
Apalachicola Municipal

Weather History for KAAF - January, 2014

Change the Weather History Date:

Friday, January 31, 2014

  Actual Average Record
Temperature  
Mean Temperature 48 °F 53 °F  
Max Temperature 58 °F 64 °F 77 °F (1974)
Min Temperature 38 °F 42 °F 24 °F (1966)
Degree Days  
Heating Degree Days 17    
Month to date heating degree days 454  
Since 1 July heating degree days 755  
Cooling Degree Days 0    
Month to date cooling degree days 1  
Year to date cooling degree days 1  
Moisture  
Dew Point 43 °F    
Average Humidity 83    
Maximum Humidity 89    
Minimum Humidity 76    
Precipitation  
Precipitation T in 0.15 in 0.54 in (2001)
Month to date precipitation 5.48 4.40  
Year to date precipitation 5.48 4.40  
Sea Level Pressure  
Sea Level Pressure 30.15 in    
Wind  
Wind Speed 5 mph (NNE)    
Max Wind Speed 10 mph    
Max Gust Speed 14 mph    
Visibility 7 miles    
Events Rain    
T = Trace of Precipitation, MM = Missing Value Source: NWS Daily Summary

Daily Weather History Graph

Daily Weather History Graph

Search for Another Location

Airport or City:

Trip Planner

Search our weather history database for the weather conditions in past years. The results will help you decide how hot, cold, wet, or windy it might be!

Date:

Astronomy

Jan. 31, 2014 Rise Set
Actual Time 7:30 AM EST 6:17 PM EST
Civil Twilight 7:05 AM EST 6:42 PM EST
Nautical Twilight 6:36 AM EST 7:10 PM EST
Astronomical Twilight 6:08 AM EST 7:38 PM EST
Moon 7:47 AM EST (1/31) 7:30 PM EST (1/31)
Length of Visible Light 11h 36m
Length of Day
10h 46m
New Moon, 1% of the Moon is Illuminated
Jan 31
New Moon
Feb 6
First Quarter
Feb 14
Full
Feb 22
Last Quarter
Mar 1
New

Hourly Weather History & Observations

Time (EST) Temp. Windchill Dew Point Humidity Pressure Visibility Wind Dir Wind Speed Gust Speed Precip Events Conditions
12:53 AM 42.1 °F 39.2 °F 36.0 °F 79% 30.15 in 10.0 mi ENE 4.6 mph - N/A   Overcast
1:50 AM 39.2 °F 35.0 °F 33.8 °F 81% 30.13 in 10.0 mi NNE 5.8 mph - N/A   Scattered Clouds
1:53 AM 39.0 °F 34.0 °F 34.0 °F 82% 30.12 in 10.0 mi NNE 6.9 mph - N/A   Partly Cloudy
2:42 AM 39.2 °F 35.0 °F 35.6 °F 87% 30.14 in 10.0 mi NE 5.8 mph - N/A   Mostly Cloudy
2:53 AM 39.0 °F 35.7 °F 35.1 °F 86% 30.14 in 10.0 mi NE 4.6 mph - N/A   Overcast
3:53 AM 41.0 °F 36.4 °F 35.1 °F 79% 30.15 in 10.0 mi NNE 6.9 mph - N/A   Overcast
4:17 AM 41.0 °F 35.2 °F 35.6 °F 81% 30.14 in 5.0 mi NNE 9.2 mph - 0.00 in Rain Light Rain
4:32 AM 39.2 °F 33.0 °F 35.6 °F 87% 30.15 in 5.0 mi NE 9.2 mph - 0.00 in   Overcast
4:53 AM 39.9 °F 33.9 °F 36.0 °F 86% 30.15 in 6.0 mi NNE 9.2 mph - 0.00 in   Overcast
5:53 AM 39.9 °F 35.1 °F 35.1 °F 83% 30.15 in 10.0 mi NE 6.9 mph - N/A   Overcast
6:37 AM 41.0 °F 38.0 °F 35.6 °F 81% 30.15 in 10.0 mi NE 4.6 mph - N/A   Overcast
6:53 AM 41.0 °F 37.1 °F 36.0 °F 82% 30.15 in 6.0 mi NE 5.8 mph - N/A   Haze
7:23 AM 39.2 °F 35.0 °F 35.6 °F 87% 30.15 in 10.0 mi NE 5.8 mph - N/A   Overcast
7:53 AM 41.0 °F 38.0 °F 37.0 °F 86% 30.16 in 10.0 mi NE 4.6 mph - N/A   Overcast
8:00 AM 41.0 °F 37.1 °F 37.4 °F 87% 30.16 in 10.0 mi NE 5.8 mph - N/A   Overcast
8:53 AM 43.0 °F 39.5 °F 39.0 °F 86% 30.17 in 9.0 mi NNE 5.8 mph - N/A   Overcast
9:53 AM 46.0 °F 41.4 °F 41.0 °F 83% 30.18 in 4.0 mi North 9.2 mph - N/A   Haze
10:26 AM 46.4 °F 41.9 °F 42.8 °F 87% 30.19 in 1.8 mi North 9.2 mph - 0.00 in Rain Light Rain
10:46 AM 46.4 °F 43.5 °F 42.8 °F 87% 30.20 in 2.0 mi North 5.8 mph - 0.00 in   Overcast
10:53 AM 46.9 °F - 43.0 °F 86% 30.20 in 1.8 mi North 5.8 mph - 0.00 in   Overcast
11:21 AM 46.4 °F 43.5 °F 44.6 °F 93% 30.20 in 1.8 mi North 5.8 mph - 0.00 in   Overcast
11:51 AM 48.2 °F - 44.6 °F 87% 30.19 in 2.0 mi North 6.9 mph - 0.00 in   Overcast
11:53 AM 48.9 °F - 45.0 °F 86% 30.19 in 2.0 mi North 5.8 mph - 0.00 in   Overcast
12:00 PM 48.2 °F - 44.6 °F 87% 30.19 in 1.8 mi North 6.9 mph - N/A   Overcast
12:09 PM 48.2 °F - 44.6 °F 87% 30.19 in 2.0 mi North 5.8 mph - N/A   Overcast
12:16 PM 48.2 °F - 46.4 °F 93% 30.19 in 1.8 mi North 4.6 mph - N/A   Overcast
12:35 PM 51.8 °F - 46.4 °F 82% 30.17 in 2.5 mi NNE 4.6 mph - 0.00 in Rain Light Rain
12:53 PM 51.1 °F - 46.9 °F 86% 30.17 in 2.5 mi North 5.8 mph - 0.00 in   Overcast
1:20 PM 51.8 °F - 48.2 °F 88% 30.16 in 3.0 mi North 5.8 mph - N/A   Overcast
1:38 PM 53.6 °F - 48.2 °F 82% 30.14 in 9.0 mi North 5.8 mph - N/A   Overcast
1:53 PM 53.1 °F - 48.0 °F 83% 30.14 in 9.0 mi North 4.6 mph - N/A   Overcast
2:53 PM 55.9 °F - 50.0 °F 80% 30.12 in 9.0 mi Calm Calm - 0.00 in   Overcast
3:53 PM 57.9 °F - 52.0 °F 81% 30.11 in 10.0 mi Calm Calm - N/A   Overcast
4:24 PM 55.4 °F - 48.2 °F 77% 30.11 in 10.0 mi South 4.6 mph - N/A   Overcast
4:53 PM 55.0 °F - 50.0 °F 83% 30.10 in 10.0 mi South 4.6 mph - N/A   Mostly Cloudy
5:53 PM 54.0 °F - 48.9 °F 83% 30.10 in 10.0 mi ESE 6.9 mph - N/A   Overcast
6:11 PM 53.6 °F - 50.0 °F 88% 30.10 in 10.0 mi East 3.5 mph - N/A   Overcast
6:19 PM 53.6 °F - 50.0 °F 88% 30.10 in 10.0 mi East 4.6 mph - N/A   Overcast
6:53 PM 55.0 °F - 50.0 °F 83% 30.10 in 10.0 mi ENE 4.6 mph - N/A   Overcast
7:53 PM 55.0 °F - 50.0 °F 83% 30.11 in 10.0 mi NE 4.6 mph - N/A   Overcast
8:53 PM 57.0 °F - 51.1 °F 81% 30.13 in 10.0 mi Calm Calm - N/A   Overcast
9:53 PM 55.9 °F - 51.1 °F 84% 30.12 in 10.0 mi Calm Calm - N/A   Overcast
10:53 PM 55.9 °F - 51.1 °F 84% 30.13 in 10.0 mi Calm Calm - N/A   Overcast
11:53 PM 57.0 °F - 52.0 °F 83% 30.11 in 10.0 mi Calm Calm - N/A   Overcast